Weather History for Fayetteville, NC

Change the Weather History Date:

Sunday, February 17, 2013

  Actual Average Record
Temperature  
Mean Temperature 34 °F 48 °F  
Max Temperature 42 °F 60 °F 81 °F (1945)
Min Temperature 26 °F 36 °F 10 °F (1958)
Degree Days  
Heating Degree Days 31 17  
Month to date heating degree days 326 320  
Since 1 July heating degree days 1875 2046  
Cooling Degree Days 0 0  
Month to date cooling degree days 0 0  
Year to date cooling degree days 5 2  
Moisture  
Dew Point 13 °F    
Average Humidity 53    
Maximum Humidity 82    
Minimum Humidity 23    
Precipitation  
Precipitation 0.00 in 0.12 in 2.43 in (1998)
Month to date precipitation 2.05 1.64  
Year to date precipitation 3.85 4.94  
Sea Level Pressure  
Sea Level Pressure 30.10 in    
Wind  
Wind Speed 10 mph (WNW)    
Max Wind Speed 28 mph    
Max Gust Speed 38 mph    
Visibility 10 miles    
Events      
T = Trace of Precipitation, MM = Missing Value Source: NWS Daily Summary

Daily Weather History Graph

Daily Weather History Graph

Search for Another Location

Airport:

Trip Planner

Search our weather history database for the weather conditions in past years. The results will help you decide how hot, cold, wet, or windy it might be!

Date:

Astronomy

Feb. 17, 2013 Rise Set
Actual Time 6:59 AM EST 6:00 PM EST
Civil Twilight 6:33 AM EST 6:26 PM EST
Nautical Twilight 6:03 AM EST 6:55 PM EST
Astronomical Twilight 5:34 AM EST 7:25 PM EST
Moon 11:09 AM EST (2/17) 12:36 AM EST (2/17)
Length of Visible Light 11h 53m
Length of Day
11h 01m
Waxing Crescent, 49% of the Moon is Illuminated
Feb 17
Waxing Crescent
Feb 17
First Quarter
Feb 25
Full
Mar 4
Last Quarter
Mar 11
New

Hourly Weather History & Observations

Time (EST) Temp. Windchill Dew Point Humidity Pressure Visibility Wind Dir Wind Speed Gust Speed Precip Events Conditions
12:53 AM 33.1 °F 25.5 °F 24.1 °F 70% 29.94 in 10.0 mi WNW 9.2 mph - N/A   Mostly Cloudy
1:53 AM 30.9 °F 21.2 °F 21.9 °F 69% 29.96 in 10.0 mi WNW 12.7 mph - N/A   Clear
2:53 AM 30.9 °F 23.5 °F 19.9 °F 64% 29.97 in 10.0 mi WNW 8.1 mph - N/A   Clear
3:53 AM 30.0 °F 19.5 °F 18.0 °F 61% 29.98 in 10.0 mi WNW 13.8 mph - N/A   Clear
4:53 AM 28.9 °F 20.4 °F 17.1 °F 61% 30.00 in 10.0 mi West 9.2 mph - N/A   Clear
5:53 AM 28.0 °F 20.0 °F 18.0 °F 66% 30.03 in 10.0 mi West 8.1 mph - N/A   Clear
6:53 AM 28.0 °F 19.3 °F 16.0 °F 61% 30.05 in 10.0 mi WNW 9.2 mph - N/A   Clear
7:53 AM 28.9 °F 19.8 °F 16.0 °F 58% 30.08 in 10.0 mi WNW 10.4 mph - N/A   Clear
8:53 AM 32.0 °F 22.5 °F 16.0 °F 52% 30.10 in 10.0 mi WNW 12.7 mph - N/A   Clear
9:53 AM 34.0 °F 23.4 °F 12.9 °F 42% 30.12 in 10.0 mi WNW 17.3 mph 31.1 mph N/A   Partly Cloudy
10:53 AM 35.1 °F 24.8 °F 7.0 °F 31% 30.13 in 10.0 mi WNW 17.3 mph 28.8 mph N/A   Clear
11:53 AM 36.0 °F 26.3 °F 5.0 °F 27% 30.14 in 10.0 mi WNW 16.1 mph 31.1 mph N/A   Clear
12:53 PM 37.9 °F 29.2 °F 7.0 °F 28% 30.13 in 10.0 mi WNW 15.0 mph 26.5 mph N/A   Clear
1:53 PM 39.0 °F 30.6 °F 7.0 °F 27% 30.11 in 10.0 mi WNW 15.0 mph 23.0 mph N/A   Partly Cloudy
2:53 PM 41.0 °F 32.5 °F 7.0 °F 25% 30.11 in 10.0 mi WNW 17.3 mph 28.8 mph N/A   Clear
3:53 PM 42.1 °F 35.7 °F 8.1 °F 25% 30.12 in 10.0 mi WNW 11.5 mph 23.0 mph N/A   Clear
4:53 PM 41.0 °F 34.3 °F 6.1 °F 24% 30.12 in 10.0 mi West 11.5 mph 21.9 mph N/A   Clear
5:53 PM 39.9 °F 32.9 °F 7.0 °F 26% 30.15 in 10.0 mi WNW 11.5 mph - N/A   Clear
6:53 PM 36.0 °F 32.1 °F 10.0 °F 34% 30.17 in 10.0 mi West 4.6 mph - N/A   Clear
7:53 PM 35.1 °F 31.0 °F 10.9 °F 37% 30.19 in 10.0 mi West 4.6 mph - N/A   Clear
8:53 PM 33.1 °F 28.7 °F 12.9 °F 43% 30.22 in 10.0 mi WSW 4.6 mph - N/A   Clear
9:53 PM 30.9 °F 27.5 °F 15.1 °F 52% 30.24 in 10.0 mi WSW 3.5 mph - N/A   Clear
10:53 PM 28.9 °F 23.9 °F 18.0 °F 64% 30.26 in 10.0 mi WSW 4.6 mph - N/A   Clear